Weather History for Gainesville, FL

Change the Weather History Date:

Wednesday, September 4, 2013

  Actual Average Record
Temperature  
Mean Temperature 83 °F 80 °F  
Max Temperature 94 °F 89 °F 97 °F (1912)
Min Temperature 72 °F 71 °F 62 °F (1891)
Degree Days  
Heating Degree Days 0 0  
Month to date heating degree days 0 0  
Since 1 July heating degree days 0 0  
Cooling Degree Days 18 15  
Month to date cooling degree days 67 60  
Year to date cooling degree days 2129 2004  
Growing Degree Days 32 (Base 50)    
Moisture  
Dew Point 72 °F    
Average Humidity 71    
Maximum Humidity 94    
Minimum Humidity 47    
Precipitation  
Precipitation 0.05 in 0.17 in 2.51 in (1896)
Month to date precipitation 0.33 0.70  
Year to date precipitation 37.03 36.27  
Snow  
Snow 0.00 in 0.00 in 0.00 in ()
Month to date snowfall 0.0 0.0  
Since 1 July snowfall 0.0 0.0  
Since 1 September snowfall 0.0 0.0  
Snow Depth 0.00 in    
Sea Level Pressure  
Sea Level Pressure 30.04 in    
Wind  
Wind Speed 2 mph (SW)    
Max Wind Speed 15 mph    
Max Gust Speed 21 mph    
Visibility 9 miles    
Events Rain , Thunderstorm    
T = Trace of Precipitation, MM = Missing Value Source: NWS Daily Summary

Daily Weather History Graph

Daily Weather History Graph

Search for Another Location

Airport:

Trip Planner

Search our weather history database for the weather conditions in past years. The results will help you decide how hot, cold, wet, or windy it might be!

Date:

Astronomy

Sep. 04, 2013 Rise Set
Actual Time 7:08 AM EDT 7:47 PM EDT
Civil Twilight 6:43 AM EDT 8:11 PM EDT
Nautical Twilight 6:15 AM EDT 8:39 PM EDT
Astronomical Twilight 5:46 AM EDT 9:08 PM EDT
Moon 6:18 AM EDT (9/4) 7:09 PM EDT (9/4)
Length of Visible Light 13h 27m
Length of Day
12h 39m
Waning Crescent, 1% of the Moon is Illuminated
Sep 4
Waning Crescent
Sep 5
New
Sep 12
First Quarter
Sep 19
Full
Sep 26
Last Quarter

Hourly Weather History & Observations

Time (EDT) Temp. Heat Index Dew Point Humidity Pressure Visibility Wind Dir Wind Speed Gust Speed Precip Events Conditions
12:53 AM 75.9 °F - 73.0 °F 91% 30.01 in 9.0 mi SSW 3.5 mph - N/A   Clear
1:53 AM 75.0 °F - 73.0 °F 94% 30.00 in 9.0 mi Calm Calm - N/A   Clear
2:53 AM 73.9 °F - 72.0 °F 93% 30.00 in 8.0 mi Calm Calm - N/A   Clear
3:53 AM 75.0 °F - 72.0 °F 90% 29.99 in 10.0 mi Calm Calm - N/A   Clear
4:53 AM 73.0 °F - 71.1 °F 93% 29.99 in 8.0 mi Calm Calm - N/A   Clear
5:53 AM 73.0 °F - 71.1 °F 93% 30.00 in 8.0 mi Calm Calm - N/A   Clear
6:53 AM 73.0 °F - 70.0 °F 90% 30.01 in 8.0 mi Calm Calm - N/A   Clear
7:53 AM 73.0 °F - 70.0 °F 90% 30.04 in 8.0 mi Calm Calm - N/A   Clear
8:53 AM 77.0 °F - 73.9 °F 90% 30.05 in 8.0 mi Calm Calm - N/A   Clear
9:53 AM 84.9 °F 94.1 °F 75.9 °F 74% 30.06 in 10.0 mi Calm Calm - N/A   Clear
10:43 AM 87.8 °F 95.6 °F 73.4 °F 62% 30.08 in 10.0 mi Calm Calm - N/A   Mostly Cloudy
10:53 AM 87.1 °F 94.5 °F 73.0 °F 63% 30.07 in 10.0 mi Calm Calm - N/A   Mostly Cloudy
11:00 AM 87.8 °F 95.6 °F 73.4 °F 62% 30.08 in 10.0 mi Variable 3.5 mph - N/A   Mostly Cloudy
11:14 AM 87.8 °F 95.6 °F 73.4 °F 62% 30.08 in 10.0 mi Calm Calm - N/A   Scattered Clouds
11:53 AM 88.0 °F 95.6 °F 73.0 °F 61% 30.07 in 10.0 mi WNW 4.6 mph - N/A   Mostly Cloudy
12:53 PM 89.1 °F 96.0 °F 72.0 °F 57% 30.06 in 10.0 mi Variable 3.5 mph - N/A   Overcast
1:53 PM 90.0 °F 96.4 °F 71.1 °F 54% 30.05 in 10.0 mi Variable 3.5 mph - N/A   Scattered Clouds
2:53 PM 91.9 °F 97.4 °F 70.0 °F 48% 30.03 in 10.0 mi Calm Calm - N/A   Scattered Clouds
3:53 PM 91.0 °F 95.6 °F 69.1 °F 48% 30.01 in 10.0 mi NNW 4.6 mph - N/A   Partly Cloudy
4:53 PM 91.9 °F 95.9 °F 68.0 °F 45% 30.00 in 10.0 mi Calm Calm - N/A   Clear
5:53 PM 90.0 °F 94.5 °F 69.1 °F 50% 30.01 in 10.0 mi South 5.8 mph - N/A   Mostly Cloudy
6:45 PM 80.6 °F 85.4 °F 73.4 °F 79% 30.04 in 3.0 mi South 11.5 mph 20.7 mph 0.01 in Rain , Thunderstorm Thunderstorms and Rain
6:53 PM 80.1 °F 84.5 °F 73.9 °F 81% 30.05 in 6.0 mi South 8.1 mph - 0.03 in Rain , Thunderstorm Light Thunderstorms and Rain
7:23 PM 77.0 °F - 73.4 °F 89% 30.05 in 10.0 mi WSW 4.6 mph - 0.01 in Rain Light Rain
7:53 PM 78.1 °F - 73.9 °F 87% 30.06 in 10.0 mi Calm Calm - 0.02 in Rain Light Rain
8:53 PM 79.0 °F - 75.0 °F 88% 30.08 in 10.0 mi SSW 6.9 mph - 0.00 in   Overcast
9:53 PM 77.0 °F - 73.0 °F 88% 30.10 in 10.0 mi Calm Calm - N/A   Partly Cloudy
10:53 PM 77.0 °F - 73.0 °F 88% 30.09 in 10.0 mi SW 4.6 mph - N/A   Clear
11:53 PM 75.0 °F - 73.0 °F 94% 30.07 in 10.0 mi Calm Calm - N/A   Clear